Weather in Oranki

Russia / Nizhny Novgorod Oblast'     55°53′44″N   43°42′56″E
temp.,
°C
wind,
m/s
gust,
m/s
humid.,
%
clouds,
%
prec.,
mm/h
press.,
hPa
HPBL,
m
11 april, sun
sun1100:00−3s119828 0.0 102814
03:00−3s119515 0.0 102811
06:00−4s119955 0.0 102930
09:00+3s12923 0.0 1030100
12:00+7w12819 0.0 1031258
15:00+9w0169100 0.0 1031305
18:00+4e1194100 0.0 103310
21:00+1se2291100 0.0 103412
12 april, mon
mon1200:00+1ese1187100 0.0 103510
03:000ene2289100 0.0 103621
06:00+1e3793100 0.0 1037125
09:00+6e4885100 0.0 1037299
12:00+8e5976100 0.0 1037529
15:00+9e61066100 0.0 1035621
18:00+7ese61379100 0.0 1034449
21:00+4ese5119587 0.0 1034273
13 april, tue
tue1300:00+4ese499783 0.0 1033189
03:00+4se399674 0.0 1032138
06:00+5sse379392 0.0 1032119
09:00+12sse4973100 0.0 1031274
12:00+17s5848100 0.0 1030866
15:00+18s473786 0.0 10291411
18:00+14sse345459 0.0 102852
21:00+10s366652 0.0 102885
14 april, wed
wed1400:00+9s496959 0.0 1028123
03:00+7s397255 0.0 1028128
06:00+7s37751 0.0 1027105
09:00+13s47540 0.0 1027309
12:00+18s464295 0.0 10251065
15:00+18s453766 0.0 10241492
18:00+15sse375299 0.0 1023156
21:00+11sse3759100 0.0 102399
15 april, thu
thu1500:00+9s3364100 0.0 102243
03:00+8s3368100 0.0 102149
06:00+7s3472100 0.0 102171
09:00+13s3551100 0.0 1020343
12:00+17ssw344088 0.0 1019954
15:00+18ssw2334100 0.0 10181674
18:00+15s2250100 0.0 101729
21:00+11ssw2263100 0.0 101715